EW3525 Weather Reports


time (UTC)temp
F
wind
direction
speed
knots
gust
knots
rain 1hr
in
rain 24hr
in
rain mn
in
humidity
%
barometer
mb
20260510162543 55 32 1.7 9.6 0.00 0.00 0.00 61 1014.6
20260510162043 55 330 2.6 10.4 0.00 0.00 0.00 61 1014.6
20260510161545 55 51 2.6 10.4 0.00 0.00 0.00 61 1014.7
20260510161042 56 317 1.7 7.0 0.00 0.00 0.00 63 1014.7
20260510160542 55 9 0.9 7.0 0.00 0.00 0.00 64 1014.8
20260510160041 55 51 2.6 7.8 0.00 0.00 0.00 63 1014.8
20260510155540 55 57 1.7 7.8 0.00 0.00 0.00 64 1014.9
20260510155040 54 46 2.6 8.7 0.00 0.00 0.00 65 1014.9
20260510154539 54 35 1.7 8.7 0.00 0.00 0.00 64 1015.0
20260510154040 54 24 1.7 7.0 0.00 0.00 0.00 65 1015.1
20260510153545 54 74 1.7 7.0 0.00 0.00 0.00 65 1015.0
20260510153040 54 44 1.7 8.7 0.00 0.00 0.00 66 1015.1
20260510152537 54 32 1.7 8.7 0.00 0.00 0.00 66 1015.2
20260510152036 54 46 1.7 7.0 0.00 0.00 0.00 66 1015.2
20260510151541 54 22 0.9 8.7 0.00 0.00 0.00 66 1015.3
20260510151036 54 13 3.5 8.7 0.00 0.00 0.00 65 1015.3
20260510150537 54 351 2.6 7.8 0.00 0.00 0.00 66 1015.4
20260510150047 54 36 2.6 7.0 0.00 0.00 0.00 66 1015.4
20260510145535 54 22 1.7 7.8 0.00 0.00 0.00 68 1015.5
20260510145035 54 336 1.7 7.8 0.00 0.00 0.00 67 1015.5
20260510144536 54 343 2.6 9.6 0.00 0.00 0.00 67 1015.6
20260510144032 54 42 1.7 9.6 0.00 0.00 0.00 66 1015.7
20260510143533 54 53 0.9 7.0 0.00 0.00 0.00 69 1015.8
20260510143034 54 336 1.7 7.8 0.00 0.00 0.00 68 1015.7
20260510142531 54 19 1.7 7.8 0.00 0.00 0.00 67 1015.7
20260510142031 54 5 1.7 9.6 0.00 0.00 0.00 67 1015.8
20260510141531 54 360 2.6 9.6 0.00 0.00 0.00 66 1015.7
20260510141031 54 53 2.6 8.7 0.00 0.00 0.00 67 1015.8
20260510140530 54 19 0.9 7.8 0.00 0.00 0.00 68 1015.8
20260510140030 54 355 1.7 7.8 0.00 0.00 0.00 67 1015.9
20260510135530 54 38 1.7 7.8 0.00 0.00 0.00 68 1015.9
20260510135030 54 53 1.7 7.0 0.00 0.00 0.00 69 1015.9
20260510134529 54 26 1.7 9.6 0.00 0.00 0.00 68 1015.9
20260510134028 54 17 2.6 9.6 0.00 0.00 0.00 68 1016.0
20260510133528 54 38 1.7 9.6 0.00 0.00 0.00 69 1016.0
20260510133028 54 19 2.6 9.6 0.00 0.00 0.00 68 1016.0
20260510132529 54 27 1.7 9.6 0.00 0.00 0.00 68 1016.0
20260510132029 54 15 1.7 8.7 0.00 0.00 0.00 69 1016.0
20260510131527 55 103 4.3 8.7 0.00 0.00 0.00 67 1016.0
20260510131027 55 34 1.7 8.7 0.00 0.00 0.00 68 1016.0
20260510130530 55 117 0.9 5.2 0.00 0.00 0.00 69 1016.0
20260510130026 54 25 0.9 8.7 0.00 0.00 0.00 70 1016.2
20260510125524 54 20 1.7 8.7 0.00 0.00 0.00 70 1016.2
20260510125024 54 63 2.6 8.7 0.00 0.00 0.00 70 1016.3
20260510124528 54 34 1.7 9.6 0.00 0.00 0.00 70 1016.3
20260510124028 54 67 1.7 10.4 0.00 0.00 0.00 70 1016.3
20260510123524 55 60 2.6 10.4 0.00 0.00 0.00 69 1016.4
20260510123025 55 76 1.7 8.7 0.00 0.00 0.00 67 1016.3
20260510122523 56 288 3.5 9.6 0.00 0.00 0.00 68 1016.3
20260510122022 56 360 1.7 9.6 0.00 0.00 0.00 68 1016.4
20260510121523 55 36 1.7 7.8 0.00 0.00 0.00 69 1016.4
20260510121024 55 29 1.7 10.4 0.00 0.00 0.00 69 1016.4
20260510120527 55 38 2.6 10.4 0.00 0.00 0.00 69 1016.4
20260510120026 55 350 3.5 12.2 0.00 0.00 0.00 68 1016.4
20260510115524 55 355 1.7 8.7 0.00 0.00 0.00 69 1016.4
20260510115025 55 34 1.7 13.0 0.00 0.00 0.00 67 1016.4
20260510114527 56 15 2.6 8.7 0.00 0.00 0.00 67 1016.4
20260510114021 57 14 1.7 8.7 0.00 0.00 0.00 66 1016.5
20260510113519 56 12 1.7 11.3 0.00 0.00 0.00 68 1016.5
20260510113020 57 9 1.7 11.3 0.00 0.00 0.00 66 1016.6
20260510112520 58 30 1.7 7.8 0.00 0.00 0.00 66 1016.5
20260510112018 58 12 1.7 7.8 0.00 0.00 0.00 67 1016.5
20260510111517 57 16 1.7 8.7 0.00 0.00 0.00 67 1016.7
20260510111018 57 10 3.5 9.6 0.00 0.00 0.00 66 1016.7
20260510110517 57 44 3.5 9.6 0.00 0.00 0.00 65 1016.8
20260510110017 57 87 2.6 8.7 0.00 0.00 0.00 66 1016.8
20260510105517 56 340 2.6 9.6 0.00 0.00 0.00 65 1016.9
20260510105016 57 338 2.6 9.6 0.00 0.00 0.00 66 1016.9
20260510104515 57 15 1.7 8.7 0.00 0.00 0.00 66 1016.8
20260510104015 58 41 4.3 8.7 0.00 0.00 0.00 63 1016.9
20260510103515 58 355 2.6 9.6 0.00 0.00 0.00 66 1016.9
20260510103014 57 51 3.5 9.6 0.00 0.00 0.00 65 1016.8
20260510102514 57 280 2.6 7.8 0.00 0.00 0.00 68 1016.8
20260510102014 56 346 1.7 9.6 0.00 0.00 0.00 67 1016.9
20260510101513 58 83 1.7 10.4 0.00 0.00 0.00 64 1016.8
20260510101013 59 32 2.6 10.4 0.00 0.00 0.00 62 1016.9
20260510100512 58 241 1.7 10.4 0.00 0.00 0.00 65 1016.8
20260510100010 58 84 3.5 10.4 0.00 0.00 0.00 64 1016.9
20260510095514 56 350 3.5 13.9 0.00 0.00 0.00 66 1017.0
20260510095012 55 33 2.6 12.2 0.00 0.00 0.00 67 1016.9
20260510094522 55 53 2.6 12.2 0.00 0.00 0.00 66 1017.0
20260510094007 55 9 3.5 11.3 0.00 0.00 0.00 66 1016.9
20260510093506 56 122 4.3 11.3 0.00 0.00 0.00 65 1017.1
20260510093009 55 84 3.5 11.3 0.00 0.00 0.00 68 1017.1
20260510092504 54 128 3.5 12.2 0.00 0.00 0.00 68 1017.2
20260510092003 55 36 4.3 12.2 0.00 0.00 0.00 67 1017.2
20260510091504 55 203 3.5 9.6 0.00 0.00 0.00 69 1017.3
20260510091004 54 35 1.7 11.3 0.00 0.00 0.00 71 1017.4
20260510090503 54 34 3.5 11.3 0.00 0.00 0.00 70 1017.3
20260510090002 54 42 3.5 13.0 0.00 0.00 0.00 70 1017.3
20260510085502 53 71 3.5 13.0 0.00 0.00 0.00 72 1017.4
20260510085102 54 61 3.5 11.3 0.00 0.00 0.00 70 1017.5
20260510084600 54 341 3.5 11.3 0.00 0.00 0.00 74 1017.4
20260510084058 53 65 2.6 10.4 0.00 0.00 0.00 74 1017.5
20260510083557 53 333 1.7 8.7 0.00 0.00 0.00 75 1017.5
20260510083106 52 49 3.5 8.7 0.00 0.00 0.00 75 1017.5
20260510082554 52 62 2.6 8.7 0.00 0.00 0.00 75 1017.6
20260510082053 52 44 1.7 11.3 0.00 0.00 0.00 76 1017.6
20260510081552 51 14 2.6 11.3 0.00 0.00 0.00 76 1017.6
20260510081050 51 49 3.5 7.8 0.00 0.00 0.00 77 1017.6
20260510080552 51 5 2.6 9.6 0.00 0.00 0.00 78 1017.6
20260510080051 51 360 3.5 9.6 0.00 0.00 0.00 77 1017.6
20260510075550 50 32 2.6 9.6 0.00 0.00 0.00 78 1017.6
20260510075046 50 197 2.6 8.7 0.00 0.00 0.00 78 1017.7
20260510074548 50 31 1.7 7.8 0.00 0.00 0.00 79 1017.7
20260510074047 50 45 1.7 7.8 0.00 0.00 0.00 79 1017.7
20260510073545 50 31 2.6 10.4 0.00 0.00 0.00 79 1017.7
20260510073053 50 73 2.6 10.4 0.00 0.00 0.00 79 1017.7
20260510072544 50 33 2.6 10.4 0.00 0.00 0.00 79 1017.8
20260510072046 49 65 3.5 9.6 0.00 0.00 0.00 79 1017.8
20260510071544 49 59 5.2 9.6 0.00 0.00 0.00 80 1017.7
20260510071042 49 318 1.7 9.6 0.00 0.00 0.00 80 1017.7
20260510070541 49 338 3.5 9.6 0.00 0.00 0.00 80 1017.6
20260510070041 49 27 2.6 7.8 0.00 0.00 0.00 80 1017.6
20260510065542 49 20 1.7 8.7 0.00 0.00 0.00 81 1017.6
20260510065036 49 61 1.7 11.3 0.00 0.00 0.00 81 1017.5
20260510064534 49 19 2.6 7.8 0.00 0.00 0.00 82 1017.6
20260510064033 49 346 1.7 7.8 0.00 0.00 0.00 82 1017.5
20260510063532 49 51 2.6 7.8 0.00 0.00 0.00 82 1017.5
20260510063031 49 19 0.9 7.0 0.00 0.00 0.00 82 1017.4
20260510062530 49 13 2.6 7.0 0.00 0.00 0.00 82 1017.4
20260510062029 49 36 1.7 6.1 0.00 0.00 0.00 83 1017.4
20260510061533 49 31 0.9 7.0 0.00 0.00 0.00 83 1017.4
20260510061029 48 40 2.6 7.0 0.00 0.00 0.00 83 1017.3
20260510060530 48 355 1.7 7.0 0.00 0.00 0.00 83 1017.4
20260510060038 48 343 1.7 8.7 0.00 0.00 0.00 83 1017.3
20260510055527 48 78 1.7 8.7 0.00 0.00 0.00 83 1017.3
20260510055028 48 48 1.7 5.2 0.00 0.00 0.00 83 1017.3
20260510054534 48 5 1.7 7.0 0.00 0.00 0.00 83 1017.3
20260510054028 48 12 1.7 7.0 0.00 0.00 0.00 84 1017.4
20260510053523 48 360 0.9 7.0 0.00 0.00 0.00 84 1017.3
20260510053023 48 9 1.7 5.2 0.00 0.00 0.00 84 1017.3
20260510052522 48 28 0.9 7.8 0.00 0.00 0.00 84 1017.4
20260510052024 47 360 0.9 6.1 0.00 0.00 0.00 84 1017.4
20260510051521 47 74 0.9 6.1 0.00 0.00 0.00 84 1017.3
20260510051021 47 327 0.0 3.5 0.00 0.00 0.00 84 1017.4
20260510050519 47 13 0.9 4.3 0.00 0.00 0.00 84 1017.3
20260510050019 47 76 0.9 4.3 0.00 0.00 0.00 84 1017.3
20260510045521 47 44 0.9 4.3 0.00 0.00 0.00 84 1017.3
20260510045018 47 120 0.0 4.3 0.00 0.00 0.00 83 1017.3
20260510044517 47 65 0.9 4.3 0.00 0.00 0.00 83 1017.3
20260510044018 47 48 0.9 3.5 0.00 0.00 0.00 83 1017.3
20260510043516 47 292 0.9 3.5 0.00 0.00 0.00 83 1017.3
20260510043016 47 23 0.9 4.3 0.00 0.00 0.00 83 1017.3
20260510042517 47 351 0.0 4.3 0.00 0.00 0.00 83 1017.3
20260510042015 47 42 0.0 2.6 0.00 0.00 0.00 83 1017.3
20260510041514 47 86 0.9 3.5 0.00 0.00 0.00 83 1017.3
20260510041014 48 11 0.9 3.5 0.00 0.00 0.00 83 1017.4
20260510040513 47 67 0.9 3.5 0.00 0.00 0.00 82 1017.4
20260510040013 48 13 0.9 3.5 0.00 0.00 0.00 82 1017.4
20260510035515 47 21 0.9 3.5 0.00 0.00 0.00 82 1017.5
20260510035012 47 42 0.9 3.5 0.00 0.00 0.00 82 1017.5
20260510034520 48 36 0.9 3.5 0.00 0.00 0.00 82 1017.5
20260510034012 48 38 0.0 3.5 0.00 0.00 0.00 81 1017.6
20260510033515 48 23 0.9 3.5 0.00 0.00 0.00 81 1017.6
20260510033012 48 45 0.0 4.3 0.00 0.00 0.00 81 1017.6
20260510032510 48 331 0.9 4.3 0.00 0.00 0.00 81 1017.7
20260510032010 48 355 1.7 4.3 0.00 0.00 0.00 81 1017.7
20260510031511 48 19 0.9 5.2 0.00 0.00 0.00 81 1017.8
20260510031009 48 14 0.9 5.2 0.00 0.00 0.00 82 1017.8
20260510030512 48 47 0.9 4.3 0.00 0.00 0.00 82 1017.7
20260510030015 48 128 0.0 4.3 0.00 0.00 0.00 82 1017.7
20260510025508 48 36 0.9 4.3 0.00 0.00 0.00 82 1017.7
20260510025009 48 42 1.7 4.3 0.00 0.00 0.00 82 1017.7
20260510024505 48 40 0.9 2.6 0.00 0.00 0.00 82 1017.7
20260510024003 48 30 0.0 3.5 0.00 0.00 0.00 83 1017.7
20260510023503 48 47 0.0 5.2 0.00 0.00 0.00 83 1017.7
20260510023003 48 5 0.0 2.6 0.00 0.00 0.00 83 1017.8
20260510022503 48 5 0.0 2.6 0.00 0.00 0.00 83 1017.7
20260510022003 49 45 0.0 3.5 0.00 0.00 0.00 83 1017.6
20260510021501 49 29 0.9 2.6 0.00 0.00 0.00 83 1017.6
20260510021001 49 40 0.0 7.0 0.00 0.00 0.00 82 1017.7
20260510020501 49 46 0.9 7.0 0.00 0.00 0.00 82 1017.7
20260510020002 49 21 0.0 7.0 0.00 0.00 0.00 82 1017.6
20260510015600 49 55 0.9 7.0 0.00 0.00 0.00 82 1017.6
20260510015058 49 46 0.9 4.3 0.00 0.00 0.00 81 1017.6
20260510014601 49 72 0.9 4.3 0.00 0.00 0.00 81 1017.6
20260510014058 49 333 0.9 3.5 0.00 0.00 0.00 80 1017.7
20260510013558 49 313 0.9 4.3 0.00 0.00 0.00 79 1017.7
20260510013057 49 44 0.9 4.3 0.00 0.00 0.00 79 1017.7
20260510012556 49 29 0.0 2.6 0.00 0.00 0.00 78 1017.8
20260510012055 49 27 0.0 5.2 0.00 0.00 0.00 77 1017.9
20260510011555 49 82 0.9 5.2 0.00 0.00 0.00 76 1017.8
20260510011055 49 360 0.0 4.3 0.00 0.00 0.00 75 1017.9
20260510010553 49 17 0.9 3.5 0.00 0.00 0.00 73 1017.7
20260510010052 49 360 0.9 3.5 0.00 0.00 0.00 73 1017.7
20260510005553 49 17 0.9 3.5 0.00 0.00 0.00 71 1017.7
20260510005054 50 43 0.0 4.3 0.00 0.00 0.00 69 1017.7
20260510004552 50 23 0.9 5.2 0.00 0.00 0.00 68 1017.7
20260510004051 50 350 1.7 5.2 0.00 0.00 0.00 68 1017.7
20260510003551 50 36 0.0 3.5 0.00 0.00 0.00 67 1017.8
20260510003051 50 61 0.0 5.2 0.00 0.00 0.00 67 1017.8
20260510002550 50 61 0.0 5.2 0.00 0.00 0.00 67 1017.8
20260510002052 50 45 0.9 5.2 0.00 0.00 0.00 67 1017.9
20260510001549 50 47 0.0 3.5 0.00 0.00 0.00 68 1017.8
20260510001049 50 342 0.0 4.3 0.00 0.00 0.00 68 1017.8
20260510000548 50 30 0.0 4.3 0.00 0.00 0.00 68 1017.7
20260510000048 49 43 0.0 2.6 0.00 0.00 0.00 69 1017.6
20260509235547 50 30 0.0 2.6 0.00 0.00 0.00 69 1017.5
20260509235047 50 62 0.0 3.5 0.00 0.00 0.00 68 1017.6
20260509234546 50 31 0.9 3.5 0.00 0.00 0.00 68 1017.7
20260509234044 49 71 0.0 3.5 0.00 0.00 0.00 69 1017.6
20260509233549 49 50 0.0 1.7 0.00 0.00 0.00 69 1017.6
20260509233044 49 17 0.0 1.7 0.00 0.00 0.00 69 1017.6
20260509232547 49 11 0.0 1.7 0.00 0.00 0.00 71 1017.5
20260509232042 49 48 0.0 1.7 0.00 0.00 0.00 71 1017.4
20260509231545 49 48 0.0 1.7 0.00 0.00 0.00 71 1017.5
20260509231044 49 48 0.0 1.7 0.00 0.00 0.00 71 1017.4
20260509230541 49 9 0.0 1.7 0.00 0.00 0.00 71 1017.4
20260509230040 48 40 0.0 1.7 0.00 0.00 0.00 72 1017.4
20260509225539 48 31 0.0 1.7 0.00 0.00 0.00 73 1017.5
20260509225040 48 30 0.0 1.7 0.00 0.00 0.00 72 1017.4
20260509224539 49 30 0.0 0.0 0.00 0.00 0.00 72 1017.3
20260509224041 49 30 0.0 0.0 0.00 0.00 0.00 71 1017.3
20260509223539 49 30 0.0 0.0 0.00 0.00 0.00 70 1017.3
20260509223039 50 30 0.0 0.0 0.00 0.00 0.00 69 1017.3
20260509222539 50 30 0.0 1.7 0.00 0.00 0.00 69 1017.3
20260509222038 50 30 0.0 1.7 0.00 0.00 0.00 68 1017.2
20260509221538 50 30 0.0 1.7 0.00 0.00 0.00 68 1017.2
20260509221038 50 24 0.0 1.7 0.00 0.00 0.00 68 1017.3
20260509220537 50 26 0.0 0.0 0.00 0.00 0.00 69 1017.2
20260509220039 50 26 0.0 1.7 0.00 0.00 0.00 68 1017.3
20260509215537 50 26 0.0 1.7 0.00 0.00 0.00 67 1017.3
20260509215037 51 26 0.0 1.7 0.00 0.00 0.00 66 1017.3
20260509214536 51 344 0.0 1.7 0.00 0.00 0.00 65 1017.3
20260509214036 51 344 0.0 1.7 0.00 0.00 0.00 66 1017.5
20260509213536 51 15 0.0 1.7 0.00 0.00 0.00 65 1017.5
20260509213036 52 15 0.0 1.7 0.00 0.00 0.00 65 1017.5
20260509212535 52 22 0.0 1.7 0.00 0.00 0.00 63 1017.3
20260509212035 52 22 0.0 1.7 0.00 0.00 0.00 62 1017.4
20260509211536 53 22 0.0 1.7 0.00 0.00 0.00 61 1017.3
20260509211037 53 32 0.0 1.7 0.00 0.00 0.00 61 1017.2
20260509210535 54 32 0.0 1.7 0.00 0.00 0.00 58 1017.0
20260509210040 54 32 0.0 1.7 0.00 0.00 0.00 58 1017.0
20260509205535 55 30 0.0 1.7 0.00 0.00 0.00 57 1016.9
20260509205034 55 30 0.0 1.7 0.00 0.00 0.00 56 1016.9
20260509204540 56 21 0.0 1.7 0.00 0.00 0.00 55 1016.9
20260509204036 56 26 0.0 1.7 0.00 0.00 0.00 54 1016.9
20260509203534 57 22 0.0 3.5 0.00 0.00 0.00 53 1016.7
20260509203040 57 38 0.9 3.5 0.00 0.00 0.00 52 1016.7
20260509202535 58 12 0.0 2.6 0.00 0.00 0.00 52 1016.6
20260509202035 58 355 0.0 2.6 0.00 0.00 0.00 51 1016.6
20260509201533 58 19 0.0 3.5 0.00 0.00 0.00 51 1016.6
20260509201033 59 111 0.0 3.5 0.00 0.00 0.00 50 1016.5
20260509200533 59 305 0.0 3.5 0.00 0.00 0.00 49 1016.5
20260509200033 59 344 0.0 3.5 0.00 0.00 0.00 50 1016.5
20260509195532 59 221 0.0 3.5 0.00 0.00 0.00 50 1016.5
20260509195033 60 86 0.0 3.5 0.00 0.00 0.00 50 1016.5
20260509194532 60 326 0.0 2.6 0.00 0.00 0.00 51 1016.5
20260509194032 60 350 0.0 2.6 0.00 0.00 0.00 50 1016.3
20260509193533 60 12 0.0 1.7 0.00 0.00 0.00 50 1016.2
20260509193037 60 15 0.0 1.7 0.00 0.00 0.00 50 1016.2
20260509192535 60 360 0.0 1.7 0.00 0.00 0.00 50 1016.2
20260509192032 61 351 0.0 1.7 0.00 0.00 0.00 51 1016.1
20260509191538 61 277 0.0 1.7 0.00 0.00 0.00 50 1016.1
20260509191032 61 350 0.0 1.7 0.00 0.00 0.00 50 1016.1
20260509190531 62 26 0.0 1.7 0.00 0.00 0.00 48 1016.0
20260509190031 62 26 0.0 3.5 0.00 0.00 0.00 48 1015.9
20260509185531 62 342 0.9 3.5 0.00 0.00 0.00 47 1015.9
20260509185030 63 5 0.0 2.6 0.00 0.00 0.00 47 1015.9
20260509184536 63 294 0.0 3.5 0.00 0.00 0.00 46 1015.8
20260509184029 63 182 0.0 3.5 0.00 0.00 0.00 46 1015.9
20260509183530 63 294 0.0 5.2 0.00 0.00 0.00 45 1015.8
20260509183032 64 217 0.0 5.2 0.00 0.00 0.00 45 1015.8
20260509182532 64 330 0.9 6.1 0.00 0.00 0.00 45 1015.7
20260509182029 64 214 0.0 3.5 0.00 0.00 0.00 45 1015.6
20260509181533 65 216 0.0 3.5 0.00 0.00 0.00 44 1015.5
20260509181029 65 9 0.0 3.5 0.00 0.00 0.00 46 1015.5
20260509180528 65 331 0.0 3.5 0.00 0.00 0.00 45 1015.5
20260509180028 66 5 0.9 3.5 0.00 0.00 0.00 44 1015.5
20260509175532 66 32 0.9 5.2 0.00 0.00 0.00 46 1015.5
20260509175029 66 46 1.7 5.2 0.00 0.00 0.00 44 1015.4
20260509174528 66 339 0.9 4.3 0.00 0.00 0.00 44 1015.4
20260509174028 66 24 0.9 4.3 0.00 0.00 0.00 44 1015.4
20260509173527 67 343 0.0 4.3 0.00 0.00 0.00 45 1015.3
20260509173028 67 16 0.9 4.3 0.00 0.00 0.00 46 1015.2
20260509172527 66 360 0.0 3.5 0.00 0.00 0.00 45 1015.2
20260509172027 67 23 0.0 4.3 0.00 0.00 0.00 46 1015.1
20260509171526 67 27 1.7 4.3 0.00 0.00 0.00 44 1015.2
20260509171026 67 12 0.9 3.5 0.00 0.00 0.00 45 1015.3
20260509170525 67 350 0.9 5.2 0.00 0.00 0.00 44 1015.4
20260509170031 67 360 1.7 7.0 0.00 0.00 0.00 44 1015.4
20260509165524 67 324 1.7 7.0 0.00 0.00 0.00 43 1015.4
20260509165024 68 42 0.9 2.6 0.00 0.00 0.00 43 1015.4
20260509164534 68 84 0.0 4.3 0.00 0.00 0.00 44 1015.4
20260509164123 68 30 0.9 4.3 0.00 0.00 0.00 44 1015.4
20260509163524 68 38 0.9 4.3 0.00 0.00 0.00 43 1015.4
20260509163024 68 15 0.9 7.0 0.00 0.00 0.00 44 1015.3